Home   Weather   Happy Valley-Goose Bay   Past weeks

Flag for Canada Past Weather in Happy Valley-Goose Bay, Newfoundland and Labrador, Canada — Yesterday and Last 2 Weeks

Now
16 °F

Snow flurries. Overcast.


Feels Like: 8 °F
Forecast: 6 / 15 °F
Wind: 5 mph from Northwest

Location: Goose

Current Time: Dec 6, 2016 at 1:52:11 am

Latest Report: Dec 6, 2016 at 1:00 am


Visibility: 12 mi

Pressure: 29.80 "Hg

Humidity: 73%

Dew Point: 9 °F

Location of Happy Valley-Goose BayLocation

Past Weather in Happy Valley-Goose Bay — Graph

°F

Happy Valley-Goose Bay Temperature Yesterday

Maximum temperature yesterday: 18 °F (at 1:00 pm)
Minimum temperature yesterday: 10 °F (at 7:00 pm)
Average temperature yesterday: 14 °F

High & Low Weather Summary for the Past Weeks

 TemperatureHumidityPressure
High37 °F (Nov 21, 9:49 am)100% (Nov 21, 12:00 am)30.39 "Hg (Nov 21, 12:00 am)
Low3 °F (Dec 1, 6:00 am)59% (Nov 25, 1:00 pm)29.51 "Hg (Nov 22, 9:00 am)
Average21 °F82%30.04 "Hg
* Reported Nov 21 12:00 am — Dec 6 12:00 am, Happy Valley-Goose Bay, Weather by CustomWeather, © 2016

Note: Actual official high and low records may vary slightly from our data, if they occured in-between our weather recording intervals... More about our weather records

Advertising

Happy Valley-Goose Bay Weather History for the Previous 24 Hours

Scroll right to see more
 ConditionsComfort  
Time TempWeatherWind HumidityBarometerVisibility
12:00 am
Tue, Dec 6
14 °FSnow flurries. Overcast.2 mph79%29.81 "Hg15 mi
11:00 pm
Mon, Dec 5
14 °FSnow flurries. Overcast.5 mph79%29.83 "Hg15 mi
10:00 pm14 °FSnow flurries. Overcast.5 mph79%29.84 "Hg15 mi
9:00 pm14 °FSnow flurries. Overcast.6 mph73%29.85 "Hg15 mi
8:00 pm12 °FSnow flurries. Overcast.6 mph79%29.88 "Hg15 mi
7:00 pm10 °FPassing clouds.7 mph79%29.89 "Hg15 mi
6:00 pm12 °FPassing clouds.8 mph79%29.90 "Hg15 mi
5:00 pm12 °FPassing clouds.3 mph79%29.90 "Hg15 mi
4:00 pm16 °FPassing clouds.5 mph73%29.90 "Hg15 mi
3:00 pm18 °FPassing clouds.9 mph68%29.90 "Hg15 mi
2:00 pm18 °FScattered clouds.6 mph68%29.91 "Hg15 mi
1:00 pm18 °FPartly sunny.9 mph68%29.91 "Hg15 mi
12:00 pm16 °FPartly sunny.7 mph67%29.93 "Hg15 mi
11:00 am14 °FPartly sunny.8 mph73%29.95 "Hg15 mi
10:00 am12 °FPartly sunny.7 mph79%29.96 "Hg15 mi
9:00 am12 °FPartly sunny.7 mph79%29.97 "Hg15 mi
8:00 am14 °FPartly sunny.3 mph73%29.96 "Hg15 mi
7:00 am14 °FPassing clouds.10 mph73%29.94 "Hg15 mi
6:00 am14 °FPassing clouds.7 mph73%29.94 "Hg15 mi
5:00 am14 °FPassing clouds.7 mph73%29.94 "Hg15 mi
4:00 am14 °FPassing clouds.6 mph73%29.93 "Hg15 mi
3:00 am14 °FPassing clouds.6 mph73%29.93 "Hg15 mi
2:00 am14 °FPassing clouds.6 mph73%29.93 "Hg15 mi
1:00 am14 °FPartly cloudy.5 mph73%29.92 "Hg15 mi
Weather by CustomWeather, © 2016

See weather overviewHow to use our weather pages